[[{"header":{"parameterUnit":"m.s-1","parameterCategory":1,"la1":30.2991,"la2":30.254,"lo1":-89.0895,"lo2":-89.0444,"dy":0.0017,"dx":0.0017,"nx":28,"ny":28,"refTime":"2025-03-12T09:00:00:Z","depth":0,"parameterNumber":2,"parameterNumberName":"U-component_of_WINDS"},"data":[0,0,0,0,0,0,0,0,0,0,0,0,0,0,0,0,0,0,0,0,0,0,0,0,0,0,0,0,0,0,0,0,0,0,0,0,0,0,0,0,0,0,0,0,0,0,0,0,0,0,0,0,0,0,0,0,0,0,-0.2091,-0.2091,0,-0.2157,-0.2158,-0.2159,-0.2187,-0.2187,-0.2187,-0.2187,-0.2257,-0.2259,-0.2261,0,0,0,0,0,0,0,0,0,0,0,0,0,-0.199,-0.1992,-0.2091,-0.2091,-0.2092,-0.2157,-0.2158,-0.2159,-0.2187,-0.2187,-0.2187,-0.2187,-0.2256,-0.2259,-0.2261,0,0,0,0,0,0,0,0,0,0,0,0,0,-0.2043,-0.1993,-0.209,-0.2114,-0.2117,-0.2157,-0.2158,-0.2159,-0.2187,-0.2187,-0.2187,-0.2187,-0.2256,-0.2259,-0.2262,-0.2284,0,0,-0.2271,-0.2272,0,0,0,0,0,0,0,0,-0.204,-0.2047,-0.211,-0.2113,-0.2116,-0.2164,-0.2149,-0.2201,-0.2187,-0.2161,-0.2187,-0.2187,-0.2226,-0.2232,-0.2245,-0.2287,-0.229,-0.2271,-0.2273,-0.2274,-0.2275,0,0,0,0,0,0,0,-0.2037,-0.2044,-0.2117,-0.2111,-0.2114,-0.2122,-0.213,-0.2159,-0.2194,-0.2163,-0.2165,-0.2173,-0.2228,-0.2242,-0.2247,-0.2291,-0.2271,-0.2273,-0.2275,-0.2276,-0.2356,-0.2356,0,0,0,0,0,0,-0.2029,-0.2041,-0.2115,-0.2119,-0.2077,-0.2124,-0.2133,-0.2149,-0.2194,-0.22,-0.2173,-0.2174,-0.2237,-0.2243,-0.2249,-0.2279,-0.2274,-0.2277,-0.2278,-0.2356,-0.2356,-0.2357,0,0,0,0,0,0,-0.2026,-0.2035,-0.2112,-0.2081,-0.2091,-0.2126,-0.2144,-0.215,-0.2164,-0.2201,-0.2208,-0.218,-0.2237,-0.2245,-0.2275,-0.2282,-0.2278,-0.2281,-0.2355,-0.2356,-0.2356,-0.2337,0,0,0,0,0,0,-0.2023,-0.2034,-0.2042,-0.2081,-0.2093,-0.2136,-0.2145,-0.2152,-0.2169,-0.2171,-0.221,-0.2216,-0.2237,-0.227,-0.2278,-0.2286,-0.2283,-0.2355,-0.2356,-0.2356,-0.2338,-0.2337,-0.2337,0,0,0,0,0,-0.202,-0.2034,-0.2042,-0.2051,-0.2103,-0.2136,-0.2143,-0.2167,-0.2169,-0.2178,-0.2202,-0.2215,-0.228,-0.2273,-0.2282,-0.2291,-0.2355,-0.2355,-0.2356,-0.2338,-0.2337,-0.2337,0,0,0,0,0,0,-0.1996,-0.204,-0.2049,-0.2076,-0.2102,-0.2141,-0.2153,-0.2166,-0.2192,-0.2193,-0.2222,-0.2231,-0.2259,-0.2278,-0.227,-0.2315,-0.2318,-0.2321,-0.2301,-0.2301,-0.2301,-0.2296,-0.2286,0,0,0,0,0,-0.1993,-0.2016,-0.2053,-0.2074,-0.2086,-0.2117,-0.2133,-0.2149,-0.2177,-0.2189,-0.2215,-0.2243,-0.227,-0.2286,-0.2313,-0.2341,-0.235,-0.2351,-0.2351,-0.235,-0.2352,-0.2369,-0.237,-0.2359,-0.2359,-0.2359,0,0,-0.1989,-0.2016,-0.2028,-0.207,-0.2092,-0.2115,-0.2126,-0.2151,-0.2169,-0.2193,-0.2222,-0.2243,-0.2276,-0.2305,-0.2319,-0.2322,-0.2357,-0.2351,-0.235,-0.2353,-0.237,-0.2371,-0.2372,-0.236,-0.2359,-0.2359,0,0,-0.1993,-0.2016,-0.2035,-0.2058,-0.2091,-0.2112,-0.2116,-0.2154,-0.2168,-0.2198,-0.2217,-0.224,-0.2285,-0.2308,-0.2325,-0.234,-0.2353,-0.2348,-0.2346,-0.2362,-0.2363,-0.2364,-0.237,-0.2371,-0.235,-0.235,-0.235,0,-0.1984,-0.2019,-0.2044,-0.2068,-0.2086,-0.2108,-0.2129,-0.215,-0.219,-0.2203,-0.2205,-0.2263,-0.2287,-0.2322,-0.2326,-0.2339,-0.2346,-0.2343,-0.2361,-0.2362,-0.2363,-0.2369,-0.2371,-0.2349,-0.2349,-0.2349,-0.2349,0,-0.2007,-0.2031,-0.2043,-0.2082,-0.2101,-0.2123,-0.2152,-0.2169,-0.2184,-0.2205,-0.2237,-0.2266,-0.2299,-0.2309,-0.2324,-0.2347,-0.2348,-0.2355,-0.2359,-0.2363,-0.2369,-0.2371,-0.2348,-0.2348,-0.2348,-0.2348,0,0,-0.1997,-0.2049,-0.2053,-0.2071,-0.211,-0.213,-0.2154,-0.2186,-0.2201,-0.2228,-0.225,-0.2288,-0.2295,-0.2315,-0.2333,-0.2347,-0.2358,-0.2353,-0.2355,-0.2353,-0.2386,-0.238,-0.2382,-0.2367,-0.2367,-0.2368,-0.2384,0,-0.2007,-0.2049,-0.2073,-0.2106,-0.213,-0.2152,-0.2173,-0.22,-0.222,-0.2244,-0.2267,-0.2293,-0.2301,-0.2313,-0.2328,-0.2353,-0.2365,-0.2353,-0.2388,-0.2389,-0.2379,-0.2386,-0.2379,-0.2393,-0.2386,-0.2386,-0.2387,0,-0.2024,-0.2051,-0.2086,-0.2123,-0.2134,-0.2152,-0.2184,-0.2206,-0.2238,-0.2252,-0.2275,-0.2292,-0.2319,-0.2321,-0.236,-0.2351,-0.2367,-0.2381,-0.2382,-0.2387,-0.2388,-0.239,-0.2397,-0.2399,-0.2391,-0.239,-0.239,0,-0.2014,-0.2059,-0.2086,-0.2101,-0.2145,-0.2157,-0.2176,-0.2208,-0.2226,-0.2254,-0.2267,-0.2298,-0.2315,-0.234,-0.2366,-0.2365,-0.2402,-0.2406,-0.2415,-0.2414,-0.2421,-0.242,-0.2431,-0.2431,-0.2431,-0.2431,-0.2431,0,-0.2022,-0.2043,-0.2082,-0.2099,-0.2123,-0.2151,-0.2175,-0.2196,-0.2224,-0.2246,-0.2267,-0.2288,-0.2321,-0.2346,-0.2366,-0.2395,-0.2403,-0.2416,-0.2421,-0.2414,-0.2412,-0.2424,-0.2424,-0.2432,-0.2432,-0.2432,-0.2431,0,-0.2015,-0.2042,-0.2073,-0.2112,-0.2123,-0.2139,-0.2173,-0.2191,-0.2213,-0.2241,-0.2249,-0.2283,-0.2314,-0.2342,-0.2383,-0.2397,-0.2426,-0.2433,-0.2415,-0.2418,-0.2426,-0.2425,-0.2445,-0.245,-0.2446,-0.2446,-0.2446,0,-0.2019,-0.2035,-0.2076,-0.2092,-0.2111,-0.2136,-0.2155,-0.2184,-0.2202,-0.224,-0.2253,-0.2285,-0.2312,-0.236,-0.2389,-0.2421,-0.2429,-0.2434,-0.2434,-0.2426,-0.243,-0.2428,-0.243,-0.2433,-0.2433,-0.2433,-0.2433,0,-0.2022,-0.2035,-0.2061,-0.2092,-0.2114,-0.214,-0.2166,-0.2178,-0.2212,-0.2232,-0.2264,-0.2285,-0.2326,-0.2358,-0.2393,-0.2414,-0.2429,-0.2433,-0.2437,-0.243,-0.2419,-0.2425,-0.2414,-0.2432,-0.2432,-0.2432,-0.2432,-0.2432,-0.2021,-0.2037,-0.2069,-0.2097,-0.212,-0.2145,-0.2164,-0.2188,-0.2214,-0.225,-0.2266,-0.2297,-0.233,-0.2378,-0.2399,-0.2425,-0.2428,-0.2434,-0.2435,-0.2436,-0.2435,-0.2415,-0.2431,-0.2432,-0.2432,-0.2432,-0.2432,0,-0.2027,-0.2048,-0.2074,-0.2111,-0.2133,-0.2146,-0.2176,-0.2194,-0.2222,-0.225,-0.2277,-0.2313,-0.2344,-0.2376,-0.241,-0.2424,-0.2432,-0.2432,-0.2431,-0.2436,-0.243,-0.2423,-0.2425,-0.2425,-0.2425,-0.2425,-0.2425,-0.2425,-0.2032,-0.206,-0.2077,-0.2117,-0.2139,-0.217,-0.2186,-0.2209,-0.2232,-0.2272,-0.2298,-0.2318,-0.2349,-0.2384,-0.2414,-0.2423,-0.2434,-0.2432,-0.2443,-0.2436,-0.2436,-0.2437,-0.2431,-0.2434,-0.2434,-0.2447,-0.2447,-0.2447]},{"header":{"parameterUnit":"m.s-1","parameterCategory":1,"la1":30.2991,"la2":30.254,"lo1":-89.0895,"lo2":-89.0444,"dy":0.0017,"dx":0.0017,"nx":28,"ny":28,"refTime":"2025-03-12T09:00:00:Z","depth":0,"parameterNumber":3,"parameterNumberName":"V-component_of_WINDS"},"data":[0,0,0,0,0,0,0,0,0,0,0,0,0,0,0,0,0,0,0,0,0,0,0,0,0,0,0,0,0,0,0,0,0,0,0,0,0,0,0,0,0,0,0,0,0,0,0,0,0,0,0,0,0,0,0,0,0,0,2.8092,2.8092,0,2.8086,2.8086,2.8086,2.8067,2.8067,2.8066,2.8066,2.806,2.806,2.806,0,0,0,0,0,0,0,0,0,0,0,0,0,2.8088,2.8088,2.8092,2.8092,2.8092,2.8086,2.8086,2.8086,2.8067,2.8067,2.8066,2.8066,2.8059,2.806,2.806,0,0,0,0,0,0,0,0,0,0,0,0,0,2.8087,2.8088,2.8092,2.8082,2.8081,2.8086,2.8086,2.8086,2.8067,2.8067,2.8066,2.8065,2.8059,2.806,2.806,2.8074,0,0,2.8061,2.8061,0,0,0,0,0,0,0,0,2.8087,2.8087,2.8083,2.8083,2.8081,2.8076,2.8082,2.8082,2.8067,2.8072,2.8066,2.8065,2.8066,2.8065,2.8066,2.8074,2.8074,2.8061,2.8061,2.8061,2.8061,0,0,0,0,0,0,0,2.8087,2.8087,2.8089,2.8083,2.8082,2.8078,2.8077,2.8082,2.8073,2.8072,2.8071,2.807,2.8065,2.8065,2.8065,2.8074,2.8061,2.8061,2.8061,2.8062,2.8094,2.8095,0,0,0,0,0,0,2.8088,2.8087,2.809,2.8089,2.8083,2.8078,2.8077,2.8079,2.8072,2.8071,2.8071,2.8069,2.8065,2.8065,2.8065,2.8082,2.8061,2.8062,2.8062,2.8093,2.8094,2.8095,0,0,0,0,0,0,2.8088,2.8089,2.809,2.8088,2.8088,2.8079,2.8081,2.8079,2.8079,2.8071,2.807,2.8073,2.8065,2.8065,2.8072,2.8081,2.8062,2.8062,2.8092,2.8093,2.8094,2.8115,0,0,0,0,0,0,2.8088,2.8089,2.8094,2.8088,2.8088,2.8097,2.8081,2.8079,2.808,2.8078,2.8073,2.8071,2.8064,2.8072,2.8073,2.8081,2.8062,2.8092,2.8093,2.8094,2.8114,2.8117,2.812,0,0,0,0,0,2.8088,2.81,2.8094,2.8095,2.8094,2.8098,2.8098,2.8089,2.8081,2.8086,2.8081,2.8072,2.808,2.8073,2.8073,2.8083,2.8091,2.8093,2.8094,2.8113,2.8116,2.812,0,0,0,0,0,0,2.8107,2.8099,2.8093,2.8103,2.8101,2.8095,2.8101,2.8093,2.8094,2.8092,2.8081,2.808,2.8089,2.8087,2.8079,2.8096,2.8084,2.8086,2.8098,2.8102,2.8104,2.8105,2.8063,0,0,0,0,0,2.8113,2.8116,2.8109,2.8119,2.8118,2.811,2.8111,2.8104,2.8102,2.8101,2.8097,2.8095,2.8097,2.8099,2.8101,2.8113,2.8112,2.812,2.8123,2.8125,2.8127,2.8134,2.8137,2.81,2.81,2.81,0,0,2.8124,2.812,2.8123,2.8122,2.812,2.8124,2.8109,2.8114,2.8117,2.8102,2.8109,2.8106,2.8103,2.8113,2.8118,2.8111,2.8137,2.8127,2.8129,2.8129,2.8136,2.8139,2.8143,2.8101,2.81,2.81,0,0,2.8147,2.8144,2.8152,2.815,2.8147,2.8142,2.8144,2.8138,2.8136,2.8142,2.8131,2.8135,2.8139,2.8138,2.8137,2.816,2.8152,2.8161,2.8176,2.8183,2.8186,2.8189,2.8198,2.8201,2.8162,2.8163,2.8163,0,2.8161,2.8167,2.8157,2.8163,2.8163,2.815,2.8158,2.8157,2.8155,2.8155,2.8148,2.8153,2.815,2.8161,2.8166,2.8166,2.8169,2.8162,2.8187,2.8189,2.8191,2.82,2.8203,2.8164,2.8164,2.8163,2.8163,0,2.8185,2.8189,2.8196,2.8195,2.8196,2.8203,2.8194,2.8197,2.819,2.8185,2.8193,2.8189,2.819,2.8192,2.8185,2.8201,2.8197,2.8188,2.8176,2.8196,2.8204,2.8207,2.8165,2.8165,2.8165,2.8164,0,0,2.822,2.8213,2.8216,2.8216,2.8211,2.8214,2.8221,2.8222,2.8224,2.8223,2.8229,2.8232,2.8225,2.8224,2.8218,2.8224,2.8243,2.8214,2.8214,2.822,2.8261,2.8268,2.8272,2.8237,2.8237,2.8238,2.8261,0,2.8243,2.8254,2.8245,2.8258,2.8262,2.8249,2.8255,2.8253,2.8249,2.8252,2.8247,2.825,2.8239,2.8239,2.8244,2.8239,2.8251,2.8237,2.8242,2.8243,2.8244,2.8276,2.8283,2.8306,2.8264,2.8265,2.8265,0,2.827,2.8271,2.8284,2.8279,2.828,2.8286,2.8286,2.8289,2.8287,2.8283,2.8283,2.8275,2.8281,2.8269,2.8277,2.8269,2.827,2.8268,2.8269,2.827,2.8256,2.8278,2.8313,2.8317,2.8269,2.8269,2.8269,0,2.8296,2.8299,2.8308,2.8307,2.8302,2.8306,2.8304,2.8301,2.8303,2.8303,2.8304,2.8305,2.8305,2.8306,2.8299,2.829,2.8309,2.8295,2.8307,2.8307,2.8312,2.8312,2.8348,2.8311,2.8311,2.8311,2.8311,0,2.8322,2.8331,2.8319,2.8325,2.8334,2.8324,2.8334,2.833,2.8328,2.8333,2.8321,2.8326,2.8315,2.8318,2.8312,2.8321,2.8321,2.8319,2.8317,2.832,2.8321,2.8322,2.832,2.8312,2.8312,2.8312,2.8312,0,2.8352,2.8345,2.8354,2.8348,2.8346,2.8354,2.8349,2.8354,2.8348,2.8355,2.8355,2.8347,2.8351,2.8343,2.8345,2.8341,2.8354,2.835,2.8355,2.8354,2.8366,2.8366,2.8405,2.841,2.8369,2.837,2.837,0,2.837,2.8377,2.8372,2.8374,2.8373,2.8376,2.8378,2.8368,2.837,2.8368,2.8373,2.8376,2.8377,2.8384,2.8378,2.838,2.8376,2.839,2.8376,2.838,2.8378,2.8378,2.8379,2.8393,2.8393,2.8394,2.8394,0,2.8403,2.8399,2.8401,2.8403,2.8405,2.8405,2.8405,2.8407,2.8397,2.84,2.8403,2.8405,2.8407,2.841,2.8411,2.8409,2.84,2.8398,2.8401,2.8405,2.8408,2.8408,2.8364,2.8398,2.8397,2.8397,2.8397,2.8397,2.8428,2.8434,2.8431,2.8434,2.8433,2.8433,2.8437,2.8433,2.8436,2.8437,2.8431,2.8436,2.8434,2.8434,2.8433,2.8437,2.8431,2.8435,2.8436,2.8437,2.844,2.8407,2.8437,2.8437,2.8437,2.8437,2.8436,0,2.8461,2.8459,2.8462,2.8462,2.8464,2.8456,2.8455,2.8458,2.8462,2.8461,2.8463,2.8467,2.847,2.8465,2.8467,2.8471,2.8468,2.8472,2.8472,2.8472,2.8445,2.8442,2.8475,2.8475,2.8475,2.8475,2.8475,2.8475,2.8479,2.8488,2.8483,2.8492,2.8489,2.8494,2.8495,2.8495,2.8494,2.8499,2.8502,2.8498,2.8495,2.8497,2.85,2.8498,2.85,2.8506,2.8503,2.8478,2.8474,2.8471,2.8468,2.8506,2.8506,2.8531,2.8531,2.8531]}]]